When you browse on this site, cookies collect data to enhance your experience and personalize the content and advertising you see.
Visit our Privacy Policy to learn more. By continuing to use the site, you agree to this use of cookies and data.
  • In Netherlands
  • List of Countries
  • For 7 days
  • Water Temperature
  • Satellite Maps
  • Weather Map
  • Weather Widgets
  • user-avatar
    Login

    Hourly Weather Lewis

    Today, 20 June, Thursday

    Time Temperature Precipitation Wind Pressure Humidity
    00:00 +6°C° 0 mm 5 mps 741 mmHg 94%
    01:00 +6°C° 0 mm 5 mps 741 mmHg 94%
    02:00 +6°C° 0 mm 5 mps 741 mmHg 95%
    03:00 +6°C° 0 mm 5 mps 740 mmHg 95%
    04:00 +7°C° 0.3 mm 5 mps 740 mmHg 94%
    05:00 +8°C° 0.3 mm 6 mps 740 mmHg 92%
    06:00 +8°C° 0.3 mm 6 mps 740 mmHg 91%
    07:00 +9°C° 0.4 mm 6 mps 741 mmHg 89%
    08:00 +9°C° 0.4 mm 7 mps 741 mmHg 86%
    09:00 +9°C° 0.4 mm 7 mps 741 mmHg 84%
    10:00 +10°C° 0.3 mm 7 mps 742 mmHg 83%
    11:00 +10°C° 0.3 mm 8 mps 742 mmHg 82%
    12:00 +10°C° 0.3 mm 8 mps 743 mmHg 81%
    13:00 +10°C° 0.2 mm 8 mps 743 mmHg 80%
    14:00 +10°C° 0.2 mm 8 mps 743 mmHg 80%
    15:00 +10°C° 0.2 mm 8 mps 744 mmHg 79%
    16:00 +9°C° 0.1 mm 7 mps 744 mmHg 79%
    17:00 +9°C° 0.1 mm 7 mps 745 mmHg 78%
    18:00 +9°C° 0.1 mm 7 mps 745 mmHg 78%
    19:00 +8°C° 0.2 mm 7 mps 746 mmHg 80%
    20:00 +8°C° 0.2 mm 7 mps 746 mmHg 82%
    21:00 +6°C° 0.2 mm 7 mps 746 mmHg 84%
    22:00 +7°C° 0.1 mm 6 mps 747 mmHg 85%
    23:00 +7°C° 0.1 mm 6 mps 747 mmHg 85%

    Tomorrow, 21 June, Friday

    Time Temperature Precipitation Wind Pressure Humidity
    00:00 +6°C° 0.1 mm 5 mps 747 mmHg 85%
    01:00 +7°C° 0.1 mm 6 mps 748 mmHg 85%
    02:00 +7°C° 0.1 mm 6 mps 748 mmHg 85%
    03:00 +7°C° 0.1 mm 6 mps 748 mmHg 85%
    04:00 +7°C° 0.1 mm 6 mps 748 mmHg 84%
    05:00 +6°C° 0.1 mm 7 mps 748 mmHg 83%
    06:00 +8°C° 0.1 mm 7 mps 749 mmHg 81%
    07:00 +8°C° 0.2 mm 7 mps 749 mmHg 79%
    08:00 +9°C° 0.2 mm 7 mps 750 mmHg 77%
    09:00 +10°C° 0.2 mm 7 mps 750 mmHg 75%
    10:00 +10°C° 0.1 mm 7 mps 751 mmHg 73%
    11:00 +11°C° 0.1 mm 7 mps 751 mmHg 71%
    12:00 +11°C° 0.1 mm 7 mps 752 mmHg 69%
    13:00 +11°C° 0.1 mm 7 mps 752 mmHg 68%
    14:00 +11°C° 0.1 mm 7 mps 753 mmHg 67%
    15:00 +11°C° 0.1 mm 7 mps 753 mmHg 67%
    16:00 +11°C° 0 mm 7 mps 753 mmHg 66%
    17:00 +10°C° 0 mm 6 mps 753 mmHg 66%
    18:00 +10°C° 0 mm 6 mps 754 mmHg 66%
    19:00 +9°C° 0 mm 5 mps 754 mmHg 72%
    20:00 +8°C° 0 mm 4 mps 754 mmHg 79%
    21:00 +8°C° 0 mm 4 mps 755 mmHg 86%
    22:00 +7°C° 0 mm 4 mps 755 mmHg 88%
    23:00 +7°C° 0 mm 4 mps 755 mmHg 91%

    Day after tomorrow, 22 June, Saturday

    Time Temperature Precipitation Wind Pressure Humidity
    00:00 +6°C° 0 mm 4 mps 755 mmHg 94%
    01:00 +6°C° 0 mm 4 mps 755 mmHg 94%
    02:00 +6°C° 0 mm 4 mps 755 mmHg 94%
    03:00 +6°C° 0 mm 4 mps 755 mmHg 94%
    04:00 +7°C° 0 mm 4 mps 755 mmHg 91%
    05:00 +8°C° 0 mm 4 mps 755 mmHg 88%
    06:00 +8°C° 0 mm 4 mps 755 mmHg 84%
    07:00 +10°C° 0 mm 4 mps 755 mmHg 80%
    08:00 +11°C° 0 mm 4 mps 755 mmHg 75%
    09:00 +12°C° 0 mm 4 mps 755 mmHg 70%
    10:00 +12°C° 0 mm 4 mps 756 mmHg 72%
    11:00 +13°C° 0 mm 4 mps 756 mmHg 73%
    12:00 +13°C° 0 mm 4 mps 756 mmHg 75%
    13:00 +13°C° 0.2 mm 4 mps 756 mmHg 75%
    14:00 +13°C° 0.2 mm 4 mps 756 mmHg 76%
    15:00 +14°C° 0.2 mm 4 mps 756 mmHg 76%
    16:00 +14°C° 0.2 mm 3 mps 756 mmHg 76%
    17:00 +15°C° 0.2 mm 2 mps 756 mmHg 76%
    18:00 +15°C° 0.2 mm 2 mps 756 mmHg 75%
    19:00 +14°C° 0.1 mm 2 mps 756 mmHg 80%
    20:00 +13°C° 0.1 mm 1 mps 757 mmHg 85%
    21:00 +12°C° 0.1 mm 1 mps 757 mmHg 89%
    22:00 +11°C° 0 mm 1 mps 757 mmHg 90%
    23:00 +11°C° 0 mm 1 mps 757 mmHg 90%

    23 June, Sunday

    Time Temperature Precipitation Wind Pressure Humidity
    00:00 +9°C° 0 mm 0 mps 757 mmHg 91%
    01:00 +10°C° 0 mm 0 mps 757 mmHg 91%
    02:00 +11°C° 0 mm 1 mps 757 mmHg 91%
    03:00 +11°C° 0 mm 1 mps 757 mmHg 90%
    04:00 +11°C° 0 mm 1 mps 757 mmHg 89%
    05:00 +12°C° 0 mm 1 mps 757 mmHg 89%
    06:00 +12°C° 0 mm 1 mps 757 mmHg 88%
    07:00 +13°C° 0 mm 1 mps 757 mmHg 86%
    08:00 +14°C° 0 mm 2 mps 758 mmHg 83%
    09:00 +14°C° 0 mm 2 mps 758 mmHg 81%
    10:00 +15°C° 0 mm 2 mps 758 mmHg 77%
    11:00 +16°C° 0 mm 3 mps 758 mmHg 74%
    12:00 +17°C° 0 mm 4 mps 758 mmHg 70%
    13:00 +17°C° 0 mm 4 mps 758 mmHg 68%
    14:00 +17°C° 0 mm 4 mps 758 mmHg 65%
    15:00 +17°C° 0 mm 4 mps 758 mmHg 63%
    16:00 +17°C° 0 mm 4 mps 758 mmHg 64%
    17:00 +17°C° 0 mm 4 mps 758 mmHg 66%
    18:00 +15°C° 0 mm 4 mps 758 mmHg 67%
    19:00 +14°C° 0 mm 4 mps 759 mmHg 72%
    20:00 +13°C° 0 mm 4 mps 759 mmHg 77%
    21:00 +12°C° 0 mm 4 mps 759 mmHg 82%
    22:00 +12°C° 0 mm 3 mps 759 mmHg 84%
    23:00 +11°C° 0 mm 3 mps 759 mmHg 86%

    24 June, Monday

    Time Temperature Precipitation Wind Pressure Humidity
    00:00 +11°C° 0 mm 3 mps 759 mmHg 88%
    01:00 +11°C° 0 mm 3 mps 759 mmHg 88%
    02:00 +11°C° 0 mm 3 mps 759 mmHg 87%
    03:00 +10°C° 0 mm 3 mps 759 mmHg 86%
    04:00 +11°C° 0 mm 3 mps 759 mmHg 83%
    05:00 +12°C° 0 mm 3 mps 759 mmHg 81%
    06:00 +13°C° 0 mm 4 mps 759 mmHg 78%
    07:00 +14°C° 0 mm 4 mps 759 mmHg 74%
    08:00 +14°C° 0 mm 5 mps 759 mmHg 69%
    09:00 +15°C° 0 mm 5 mps 759 mmHg 65%
    10:00 +15°C° 0 mm 6 mps 759 mmHg 64%
    11:00 +16°C° 0 mm 7 mps 759 mmHg 63%
    12:00 +16°C° 0 mm 7 mps 759 mmHg 62%
    13:00 +16°C° 0.1 mm 7 mps 759 mmHg 67%
    14:00 +15°C° 0.1 mm 7 mps 759 mmHg 71%
    15:00 +15°C° 0.1 mm 6 mps 759 mmHg 76%
    16:00 +14°C° 1 mm 6 mps 759 mmHg 82%
    17:00 +13°C° 1 mm 6 mps 759 mmHg 88%
    18:00 +11°C° 1 mm 6 mps 759 mmHg 94%
    19:00 +11°C° 0.6 mm 7 mps 759 mmHg 93%
    20:00 +11°C° 0.6 mm 8 mps 760 mmHg 92%
    21:00 +10°C° 0.6 mm 8 mps 760 mmHg 92%
    22:00 +10°C° 0 mm 9 mps 760 mmHg 91%
    23:00 +10°C° 0 mm 9 mps 760 mmHg 90%

    25 June, Tuesday

    Time Temperature Precipitation Wind Pressure Humidity
    00:00 +8°C° 0 mm 10 mps 760 mmHg 89%
    01:00 +8°C° 0 mm 9 mps 760 mmHg 88%
    02:00 +8°C° 0 mm 9 mps 760 mmHg 88%
    03:00 +9°C° 0 mm 8 mps 760 mmHg 87%
    04:00 +10°C° 0 mm 9 mps 761 mmHg 87%
    05:00 +10°C° 0 mm 9 mps 761 mmHg 86%
    06:00 +10°C° 0 mm 9 mps 761 mmHg 86%
    07:00 +11°C° 0 mm 9 mps 761 mmHg 83%
    08:00 +12°C° 0 mm 9 mps 761 mmHg 80%
    09:00 +13°C° 0 mm 9 mps 762 mmHg 77%
    10:00 +13°C° 0 mm 9 mps 762 mmHg 75%
    11:00 +15°C° 0 mm 9 mps 762 mmHg 73%
    12:00 +15°C° 0 mm 9 mps 762 mmHg 72%
    13:00 +15°C° 0 mm 9 mps 762 mmHg 71%
    14:00 +14°C° 0 mm 10 mps 761 mmHg 71%
    15:00 +14°C° 0 mm 10 mps 761 mmHg 70%
    16:00 +14°C° 0 mm 10 mps 761 mmHg 72%
    17:00 +13°C° 0 mm 11 mps 761 mmHg 73%
    18:00 +13°C° 0 mm 11 mps 761 mmHg 74%
    19:00 +12°C° 0 mm 11 mps 761 mmHg 75%
    20:00 +11°C° 0 mm 10 mps 761 mmHg 77%
    21:00 +11°C° 0 mm 10 mps 761 mmHg 78%
    22:00 +9°C° 0 mm 10 mps 761 mmHg 78%
    23:00 +10°C° 0 mm 9 mps 761 mmHg 77%
    Show more